Change the Weather History Date:

Tuesday, May 21, 2013

  Actual Average Record
Temperature  
Mean Temperature 70 °F 65 °F  
Max Temperature 77 °F 76 °F 92 °F (1934)
Min Temperature 62 °F 55 °F 34 °F (2002)
Degree Days  
Heating Degree Days 0 3  
Month to date heating degree days 111 103  
Since 1 July heating degree days 5885 5565  
Cooling Degree Days 5 3  
Month to date cooling degree days 61 41  
Year to date cooling degree days 72 61  
Growing Degree Days 18 (Base 50)    
Moisture  
Dew Point 60 °F    
Average Humidity 74    
Maximum Humidity 93    
Minimum Humidity 54    
Precipitation  
Precipitation 0.00 in 0.16 in 0.56 in (1960)
Month to date precipitation 5.39 3.35  
Year to date precipitation 17.09 12.76  
Sea Level Pressure  
Sea Level Pressure 29.68 in    
Wind  
Wind Speed 11 mph (SW)    
Max Wind Speed 21 mph    
Max Gust Speed 25 mph    
Visibility 10 miles    
Events      
T = Trace of Precipitation, MM = Missing Value Source: NWS Daily Summary

Daily Weather History Graph

Daily Weather History Graph

Search for Another Location

Airport or City:

Trip Planner

Search our weather history database for the weather conditions in past years. The results will help you decide how hot, cold, wet, or windy it might be!

Date:

Astronomy

May. 21, 2013 Rise Set
Actual Time 5:41 AM CDT 8:20 PM CDT
Civil Twilight 5:10 AM CDT 8:52 PM CDT
Nautical Twilight 4:30 AM CDT 9:32 PM CDT
Astronomical Twilight 3:45 AM CDT 10:17 PM CDT
Moon 4:33 PM CDT (5/21) 3:11 AM CDT (5/21)
Length of Visible Light 15h 42m
Length of Day
14h 39m
Waxing Gibbous, 84% of the Moon is Illuminated
May 21
Waxing Gibbous
May 24
Full
May 31
Last Quarter
Jun 8
New
Jun 16
First Quarter

Hourly Weather History & Observations

Time (CDT) Temp. Dew Point Humidity Pressure Visibility Wind Dir Wind Speed Gust Speed Precip Events Conditions
12:53 AM 63.0 °F 61.0 °F 93% 29.69 in 10.0 mi SSW 8.1 mph - N/A   Partly Cloudy
1:14 AM 64.4 °F 60.8 °F 88% 29.71 in 10.0 mi SSW 5.8 mph - N/A   Mostly Cloudy
1:53 AM 64.0 °F 61.0 °F 90% 29.69 in 10.0 mi SSW 8.1 mph - N/A   Overcast
2:53 AM 64.0 °F 61.0 °F 90% 29.65 in 10.0 mi South 10.4 mph - N/A   Overcast
3:38 AM 62.6 °F 60.8 °F 94% 29.66 in 10.0 mi South 8.1 mph - N/A   Scattered Clouds
3:53 AM 63.0 °F 60.1 °F 90% 29.65 in 10.0 mi South 9.2 mph - N/A   Clear
4:53 AM 62.1 °F 60.1 °F 93% 29.66 in 10.0 mi South 8.1 mph - N/A   Clear
5:35 AM 62.6 °F 60.8 °F 94% 29.68 in 10.0 mi SSW 10.4 mph - N/A   Mostly Cloudy
5:53 AM 62.1 °F 61.0 °F 96% 29.67 in 10.0 mi SSW 10.4 mph - N/A   Mostly Cloudy
6:02 AM 62.6 °F 60.8 °F 94% 29.68 in 10.0 mi SSW 11.5 mph - N/A   Scattered Clouds
6:53 AM 63.0 °F 61.0 °F 93% 29.67 in 10.0 mi SSW 9.2 mph - N/A   Clear
7:53 AM 64.9 °F 62.1 °F 90% 29.67 in 10.0 mi SW 15.0 mph - N/A   Clear
8:53 AM 68.0 °F 62.1 °F 81% 29.69 in 10.0 mi SW 15.0 mph - N/A   Partly Cloudy
9:53 AM 69.1 °F 61.0 °F 75% 29.69 in 10.0 mi SW 16.1 mph - N/A   Scattered Clouds
10:36 AM 71.6 °F 60.8 °F 69% 29.70 in 10.0 mi SW 16.1 mph 23.0 mph N/A   Mostly Cloudy
10:53 AM 71.1 °F 61.0 °F 70% 29.69 in 10.0 mi WSW 15.0 mph 21.9 mph N/A   Scattered Clouds
11:53 AM 72.0 °F 59.0 °F 64% 29.70 in 10.0 mi WSW 15.0 mph 20.7 mph N/A   Mostly Cloudy
12:53 PM 73.9 °F 60.1 °F 62% 29.70 in 10.0 mi SW 15.0 mph - N/A   Partly Cloudy
1:53 PM 75.0 °F 60.1 °F 60% 29.69 in 10.0 mi WSW 13.8 mph 21.9 mph N/A   Partly Cloudy
2:53 PM 73.9 °F 60.1 °F 62% 29.69 in 10.0 mi SSW 10.4 mph - N/A   Partly Cloudy
3:53 PM 75.9 °F 59.0 °F 56% 29.68 in 9.0 mi SW 16.1 mph 24.2 mph N/A   Clear
4:53 PM 75.9 °F 59.0 °F 56% 29.67 in 10.0 mi SW 16.1 mph - N/A   Clear
5:53 PM 75.0 °F 57.9 °F 55% 29.66 in 10.0 mi SW 15.0 mph 23.0 mph N/A   Clear
6:53 PM 73.9 °F 57.9 °F 57% 29.66 in 10.0 mi SW 15.0 mph - N/A   Clear
7:53 PM 71.1 °F 57.9 °F 63% 29.68 in 10.0 mi SW 9.2 mph - N/A   Clear
8:53 PM 66.9 °F 59.0 °F 76% 29.66 in 10.0 mi WSW 4.6 mph - N/A   Clear
9:53 PM 64.0 °F 57.9 °F 80% 29.66 in 10.0 mi Calm Calm - N/A   Clear
10:53 PM 63.0 °F 57.9 °F 84% 29.68 in 10.0 mi SSW 3.5 mph - N/A   Clear
11:53 PM 63.0 °F 59.0 °F 87% 29.68 in 10.0 mi SW 3.5 mph - N/A   Mostly Cloudy